• In Kazakhstan
  • List of Countries
  • For 7 days
  • Water Temperature
  • Satellite Maps
  • Weather Map
  • News
  • Weather Widgets
  • user-avatar
    Login

    Hourly Weather San Juan

    Today, 20 March, Wednesday

    Time Temperature Precipitation Wind Pressure Humidity
    00:00 +14°C° 0 mm 4 mps 712 mmHg 32%
    01:00 +14°C° 0 mm 3 mps 711 mmHg 33%
    02:00 +14°C° 0 mm 2 mps 711 mmHg 34%
    03:00 +13°C° 0 mm 2 mps 710 mmHg 35%
    04:00 +13°C° 0 mm 2 mps 710 mmHg 36%
    05:00 +13°C° 0 mm 2 mps 710 mmHg 35%
    06:00 +14°C° 0 mm 2 mps 710 mmHg 35%
    07:00 +14°C° 0 mm 2 mps 710 mmHg 34%
    08:00 +15°C° 0 mm 2 mps 710 mmHg 32%
    09:00 +17°C° 0 mm 2 mps 710 mmHg 30%
    10:00 +18°C° 0 mm 2 mps 710 mmHg 28%
    11:00 +19°C° 0 mm 3 mps 709 mmHg 26%
    12:00 +20°C° 0 mm 3 mps 709 mmHg 25%
    13:00 +21°C° 0 mm 3 mps 708 mmHg 23%
    14:00 +22°C° 0 mm 3 mps 708 mmHg 23%
    15:00 +22°C° 0 mm 3 mps 707 mmHg 23%
    16:00 +22°C° 0 mm 4 mps 707 mmHg 23%
    17:00 +21°C° 0 mm 3 mps 707 mmHg 25%
    18:00 +20°C° 0 mm 2 mps 708 mmHg 27%
    19:00 +18°C° 0 mm 2 mps 708 mmHg 30%
    20:00 +18°C° 0 mm 2 mps 708 mmHg 31%
    21:00 +18°C° 0 mm 1 mps 708 mmHg 31%
    22:00 +18°C° 0 mm 1 mps 709 mmHg 32%
    23:00 +18°C° 0 mm 1 mps 708 mmHg 33%

    Tomorrow, 21 March, Thursday

    Time Temperature Precipitation Wind Pressure Humidity
    00:00 +16°C° 0 mm 2 mps 708 mmHg 34%
    01:00 +16°C° 0 mm 2 mps 707 mmHg 35%
    02:00 +16°C° 0 mm 2 mps 707 mmHg 38%
    03:00 +16°C° 0 mm 3 mps 706 mmHg 41%
    04:00 +16°C° 0 mm 3 mps 706 mmHg 45%
    05:00 +17°C° 0 mm 3 mps 706 mmHg 45%
    06:00 +17°C° 0 mm 2 mps 706 mmHg 45%
    07:00 +18°C° 0 mm 2 mps 706 mmHg 46%
    08:00 +20°C° 0 mm 3 mps 706 mmHg 42%
    09:00 +21°C° 0 mm 3 mps 706 mmHg 39%
    10:00 +23°C° 0 mm 4 mps 706 mmHg 36%
    11:00 +25°C° 0 mm 4 mps 705 mmHg 32%
    12:00 +27°C° 0 mm 3 mps 704 mmHg 28%
    13:00 +28°C° 0 mm 3 mps 704 mmHg 25%
    14:00 +28°C° 0 mm 3 mps 703 mmHg 25%
    15:00 +28°C° 0 mm 4 mps 703 mmHg 25%
    16:00 +28°C° 0 mm 4 mps 703 mmHg 24%
    17:00 +27°C° 0 mm 3 mps 704 mmHg 29%
    18:00 +25°C° 0 mm 3 mps 704 mmHg 33%
    19:00 +24°C° 0 mm 3 mps 705 mmHg 37%
    20:00 +23°C° 0 mm 2 mps 705 mmHg 39%
    21:00 +21°C° 0 mm 2 mps 706 mmHg 41%
    22:00 +22°C° 0 mm 1 mps 706 mmHg 43%
    23:00 +20°C° 0 mm 2 mps 706 mmHg 44%

    Day after tomorrow, 22 March, Friday

    Time Temperature Precipitation Wind Pressure Humidity
    00:00 +20°C° 0 mm 3 mps 706 mmHg 45%
    01:00 +19°C° 0 mm 4 mps 706 mmHg 46%
    02:00 +19°C° 0 mm 3 mps 706 mmHg 48%
    03:00 +19°C° 0 mm 3 mps 706 mmHg 50%
    04:00 +19°C° 0 mm 3 mps 706 mmHg 52%
    05:00 +20°C° 0 mm 3 mps 707 mmHg 49%
    06:00 +21°C° 0 mm 3 mps 707 mmHg 47%
    07:00 +21°C° 0 mm 3 mps 708 mmHg 45%
    08:00 +24°C° 0 mm 2 mps 708 mmHg 39%
    09:00 +26°C° 0 mm 2 mps 708 mmHg 34%
    10:00 +28°C° 0 mm 2 mps 708 mmHg 29%
    11:00 +29°C° 0 mm 2 mps 708 mmHg 26%
    12:00 +30°C° 0 mm 2 mps 707 mmHg 23%
    13:00 +31°C° 0 mm 2 mps 706 mmHg 20%
    14:00 +31°C° 0 mm 2 mps 706 mmHg 19%
    15:00 +31°C° 0 mm 2 mps 705 mmHg 19%
    16:00 +31°C° 0 mm 1 mps 705 mmHg 19%
    17:00 +29°C° 0 mm 1 mps 705 mmHg 21%
    18:00 +27°C° 0 mm 1 mps 706 mmHg 24%
    19:00 +26°C° 0 mm 1 mps 706 mmHg 27%
    20:00 +25°C° 0 mm 2 mps 706 mmHg 28%
    21:00 +25°C° 0 mm 2 mps 706 mmHg 28%
    22:00 +24°C° 0 mm 3 mps 707 mmHg 29%
    23:00 +24°C° 0 mm 3 mps 706 mmHg 33%

    23 March, Saturday

    Time Temperature Precipitation Wind Pressure Humidity
    00:00 +23°C° 0 mm 4 mps 706 mmHg 36%
    01:00 +22°C° 0 mm 4 mps 705 mmHg 39%
    02:00 +22°C° 0 mm 4 mps 705 mmHg 40%
    03:00 +22°C° 0 mm 4 mps 705 mmHg 40%
    04:00 +21°C° 0 mm 4 mps 704 mmHg 41%
    05:00 +22°C° 0 mm 4 mps 705 mmHg 38%
    06:00 +23°C° 0 mm 4 mps 705 mmHg 36%
    07:00 +25°C° 0 mm 4 mps 706 mmHg 33%
    08:00 +27°C° 0 mm 3 mps 705 mmHg 30%
    09:00 +29°C° 0 mm 3 mps 705 mmHg 28%
    10:00 +31°C° 0 mm 3 mps 705 mmHg 25%
    11:00 +33°C° 0 mm 3 mps 705 mmHg 23%
    12:00 +33°C° 0 mm 4 mps 705 mmHg 22%
    13:00 +34°C° 0 mm 5 mps 704 mmHg 21%
    14:00 +34°C° 0 mm 5 mps 704 mmHg 21%
    15:00 +34°C° 0 mm 5 mps 704 mmHg 22%
    16:00 +33°C° 0 mm 5 mps 704 mmHg 23%
    17:00 +32°C° 0 mm 4 mps 705 mmHg 25%
    18:00 +29°C° 0 mm 4 mps 706 mmHg 28%
    19:00 +28°C° 0 mm 3 mps 706 mmHg 30%
    20:00 +27°C° 0 mm 3 mps 707 mmHg 31%
    21:00 +27°C° 0 mm 4 mps 708 mmHg 32%
    22:00 +26°C° 0 mm 4 mps 709 mmHg 33%
    23:00 +24°C° 0 mm 7 mps 709 mmHg 29%

    24 March, Sunday

    Time Temperature Precipitation Wind Pressure Humidity
    00:00 +23°C° 0 mm 10 mps 709 mmHg 25%
    01:00 +22°C° 0 mm 12 mps 710 mmHg 21%
    02:00 +21°C° 0 mm 10 mps 710 mmHg 21%
    03:00 +20°C° 0 mm 8 mps 710 mmHg 22%
    04:00 +19°C° 0 mm 5 mps 710 mmHg 23%
    05:00 +19°C° 0 mm 5 mps 710 mmHg 25%
    06:00 +19°C° 0 mm 5 mps 710 mmHg 28%
    07:00 +19°C° 0 mm 5 mps 710 mmHg 30%
    08:00 +20°C° 0 mm 5 mps 710 mmHg 29%
    09:00 +21°C° 0 mm 4 mps 709 mmHg 27%
    10:00 +22°C° 0 mm 4 mps 709 mmHg 25%
    11:00 +23°C° 0 mm 4 mps 708 mmHg 25%
    12:00 +25°C° 0 mm 3 mps 707 mmHg 25%
    13:00 +26°C° 0 mm 3 mps 707 mmHg 25%
    14:00 +26°C° 0 mm 3 mps 706 mmHg 25%
    15:00 +26°C° 0 mm 4 mps 706 mmHg 25%
    16:00 +26°C° 0 mm 4 mps 706 mmHg 25%
    17:00 +25°C° 0 mm 4 mps 706 mmHg 27%
    18:00 +24°C° 0 mm 3 mps 707 mmHg 29%
    19:00 +22°C° 0 mm 3 mps 707 mmHg 31%
    20:00 +21°C° 0 mm 3 mps 707 mmHg 32%
    21:00 +21°C° 0 mm 3 mps 708 mmHg 33%
    22:00 +20°C° 0 mm 3 mps 708 mmHg 34%
    23:00 +20°C° 0 mm 3 mps 708 mmHg 36%

    25 March, Monday

    Time Temperature Precipitation Wind Pressure Humidity
    00:00 +19°C° 0 mm 3 mps 708 mmHg 38%
    01:00 +18°C° 0 mm 3 mps 707 mmHg 41%
    02:00 +18°C° 0 mm 3 mps 707 mmHg 41%
    03:00 +17°C° 0 mm 2 mps 707 mmHg 42%
    04:00 +17°C° 0 mm 2 mps 707 mmHg 43%
    05:00 +17°C° 0 mm 2 mps 707 mmHg 41%
    06:00 +18°C° 0 mm 2 mps 707 mmHg 40%
    07:00 +18°C° 0 mm 3 mps 708 mmHg 38%
    08:00 +20°C° 0 mm 3 mps 708 mmHg 36%
    09:00 +21°C° 0 mm 3 mps 708 mmHg 34%
    10:00 +22°C° 0 mm 3 mps 708 mmHg 32%
    11:00 +24°C° 0 mm 3 mps 707 mmHg 30%
    12:00 +25°C° 0 mm 3 mps 706 mmHg 29%
    13:00 +26°C° 0 mm 3 mps 706 mmHg 27%
    14:00 +26°C° 0 mm 4 mps 705 mmHg 26%
    15:00 +26°C° 0 mm 4 mps 705 mmHg 26%
    16:00 +26°C° 0 mm 4 mps 705 mmHg 25%
    17:00 +25°C° 0 mm 4 mps 706 mmHg 27%
    18:00 +23°C° 0 mm 4 mps 706 mmHg 29%
    19:00 +22°C° 0 mm 3 mps 707 mmHg 31%
    20:00 +22°C° 0 mm 3 mps 707 mmHg 30%
    21:00 +21°C° 0 mm 3 mps 708 mmHg 30%
    22:00 +21°C° 0 mm 3 mps 708 mmHg 29%
    23:00 +20°C° 0 mm 3 mps 708 mmHg 32%
    Show more